{"data":{"norad_id":66060,"epoch":"2026-09-20T21:39:46.727424Z","epoch_age_seconds":68234,"freshness":"FRESH","line1":"1 66060U 25235C   26263.90262416  .00022057  00000+0  66205-3 0  9991","line2":"2 66060  53.1608  57.5277 0001045  57.5769 302.5335 15.34398538 52822","mean_motion":15.34398538,"eccentricity":0.0001045,"inclination_deg":53.1608,"raan_deg":57.5277,"arg_perigee_deg":57.5769,"mean_anomaly_deg":302.5335,"bstar":0.00066205,"rev_number":5282,"period_min":93.847847501012,"perigee_km":461.99271732346,"apogee_km":463.42245384185,"semimajor_km":6840.8445855827,"source":"CELESTRAK","updated_at":"2026-09-21T09:00:35.794092Z"}}